User: anonymous   Login
Location: Diebersbach
(48.5163°N, 8.0558°E)
Time: 08:13:37
(UTC+00:00)
Language:

Star 20 E-38 - Orbit

View from above orbital plane
View from above orbital plane
View from above satellite
View from above satellite

Ground track
Ground track

The orbit data is extracted from the following two-line orbital elements,

1 17071U 86088B   22028.58128211  .00000074  00000-0  64462-4 0  9995
2 17071  89.5544 235.7026 0039799  48.8177 311.6409 13.75174271765718
Epoch (UTC): 28 January 2022 13:57:02
Eccentricity: 0.0039799
inclination: 89.5544°
perigee height: 952 km
apogee height: 1010 km
right ascension of ascending node: 235.7026°
argument of perigee: 48.8177°
revolutions per day: 13.75174271
mean anomaly at epoch: 311.6409°
orbit number at epoch: 76571

The dashed part of the orbit path shows where the satellite is in the earth's shadow,  

DLR